Location: Leiter
(44.7178°N, 106.2687°W)
Time: 06:57:23
(UTC+00:00)

DX 1 - Pass Details

Date: 05 July 2022
Orbit: 616 x 630 km, 98.4° (Epoch: 17 August)

Event Time Altitude Azimuth Distance (km) Brightness Sun altitude
Rises 06:00:55 0° 352° (N) 2,930 ? -20.7°
Reaches altitude 10° 06:05:01 10° 314° (NW) 2,013 ? -20.9°
Maximum altitude 06:05:54 11° 303° (WNW) 1,973 ? -20.9°
Drops below altitude 10° 06:06:48 10° 291° (WNW) 2,009 ? -21.0°
Sets 06:10:52 0° 252° (WSW) 2,905 ? -21.2°
